Location: Dugenta
(41.1333°N, 14.4500°E)
Time: 13:38:46
(UTC+00:00)

Cosmos 1689 Rocket - Pass Details

Date: 03 March 2021
Orbit: 350 x 361 km, 97.5° (Epoch: 13 April)

Event Time Altitude Azimuth Distance (km) Brightness Sun altitude
Rises 17:25:51 0° 21° (NNE) 2,207 5.7 -6.5°
Reaches altitude 10° 17:27:54 10° 31° (NNE) 1,357 4.5 -6.9°
Maximum altitude 17:30:33 33° 98° (E) 635 2.6 -7.4°
Drops below altitude 10° 17:33:13 10° 166° (SSE) 1,352 4.7 -7.9°
Sets 17:35:15 0° 176° (S) 2,197 5.9 -8.3°
